Home   Weather   Sarasota   Past weeks

Flag for USA Past Weather in Sarasota, Florida, USA — Yesterday and Last 2 Weeks

Now
77 °F

Mostly cloudy.


Feels Like: 79 °F
Forecast: 71 / 77 °F
Wind: 24 mph from South

Location: Sarasota-Bradenton International Airport

Current Time: Jan 22, 2017 at 11:48:56 am

Latest Report: Jan 22, 2017 at 10:53 am


Visibility: 10 mi

Pressure: 29.70 "Hg

Humidity: 82%

Dew Point: 71 °F

Location of SarasotaLocation

Past Weather in Sarasota — Graph

°F

Sarasota Temperature Yesterday

Maximum temperature yesterday: 78 °F (at 10:53 am)
Minimum temperature yesterday: 61 °F (at 5:20 am)
Average temperature yesterday: 70 °F

High & Low Weather Summary for the Past Weeks

 TemperatureHumidityPressure
High81 °F (Jan 12, 1:53 pm)100% (Jan 19, 5:53 am)30.57 "Hg (Jan 19, 5:53 am)
Low37 °F (Jan 8, 4:53 am)31% (Jan 8, 1:53 pm)29.70 "Hg (Jan 22, 7:53 am)
Average64 °F74%30.20 "Hg
* Reported Jan 7 10:53 am — Jan 22 10:15 am, Sarasota, Weather by CustomWeather, © 2017

Note: Actual official high and low records may vary slightly from our data, if they occured in-between our weather recording intervals... More about our weather records

Advertising

Sarasota Weather History for the Previous 24 Hours

Scroll right to see more
 ConditionsComfort  
Time TempWeatherWind HumidityBarometerVisibility
10:15 am
Sun, Jan 22
76 °FScattered clouds.22 mph82%29.71 "Hg10 mi
10:00 am74 °FCloudy.23 mph88%29.71 "Hg10 mi
9:03 am74 °FMild.18 mph88%29.71 "HgN/A
8:53 am74 °FPartly sunny.21 mph88%29.70 "Hg10 mi
7:53 am73 °FScattered clouds.22 mph90%29.70 "Hg10 mi
7:21 am72 °FPartly sunny.20 mph93%29.71 "Hg10 mi
6:53 am72 °FMostly cloudy.18 mph93%29.72 "Hg10 mi
5:53 am72 °FMostly cloudy.20 mph93%29.71 "Hg10 mi
5:26 am72 °FPartly cloudy.20 mph91%29.71 "Hg10 mi
4:53 am72 °FPassing clouds.20 mph91%29.71 "Hg10 mi
4:41 am72 °FPassing clouds.17 mph91%29.72 "Hg10 mi
3:53 am72 °FPassing clouds.18 mph91%29.72 "Hg10 mi
3:05 am72 °FMostly cloudy.14 mph87%29.75 "Hg10 mi
2:53 am72 °FPartly cloudy.18 mph87%29.75 "Hg10 mi
1:53 am73 °FMostly cloudy.21 mph81%29.76 "Hg10 mi
1:35 am73 °FMostly cloudy.18 mph81%29.77 "Hg10 mi
1:17 am73 °FMostly cloudy.18 mph79%29.77 "Hg10 mi
12:53 am73 °FPassing clouds.16 mph76%29.77 "Hg10 mi
12:21 am73 °FPassing clouds.16 mph79%29.78 "Hg10 mi
11:53 pm
Sat, Jan 21
73 °FPassing clouds.16 mph79%29.78 "Hg10 mi
10:53 pm72 °FClear.16 mph78%29.79 "Hg10 mi
9:53 pm72 °FClear.15 mph78%29.80 "Hg10 mi
8:53 pm72 °FPassing clouds.17 mph81%29.81 "Hg10 mi
7:53 pm72 °FClear.18 mph78%29.81 "Hg10 mi
6:53 pm71 °FClear.14 mph81%29.82 "Hg10 mi
5:53 pm72 °FSunny.17 mph81%29.81 "Hg10 mi
4:53 pm74 °FSunny.16 mph74%29.82 "Hg10 mi
3:53 pm76 °FSunny.16 mph72%29.81 "Hg10 mi
2:53 pm77 °FSunny.18 mph66%29.83 "Hg10 mi
1:53 pm77 °FSunny.21 mph64%29.84 "Hg10 mi
12:53 pm78 °FSunny.18 mph62%29.89 "Hg10 mi
11:53 am77 °FPassing clouds.16 mph62%29.93 "Hg10 mi
Weather by CustomWeather, © 2017

See weather overviewHow to use our weather pages